Time,TemperatureF,DewpointF,PressureIn,WindDirection,WindDirectionDegrees,WindSpeedMPH,WindSpeedGustMPH,Humidity,HourlyPrecipIn,Conditions,Clouds,dailyrainin,SoftwareType,DateUTC
2013-04-06 00:00:00,47.0,45.1,29.99,NNE,31,0.0,0.0,93,0.00,,,0.00,Wunderground v.1.15,2013-04-06 04:00:00,
2013-04-06 00:10:00,46.7,44.8,29.99,NNE,31,0.0,0.0,93,0.00,,,0.00,Wunderground v.1.15,2013-04-06 04:10:00,
2013-04-06 00:20:00,46.9,45.3,29.99,NNE,31,0.0,0.0,94,0.00,,,0.00,Wunderground v.1.15,2013-04-06 04:20:00,
2013-04-06 00:30:00,46.4,44.5,30.00,NNE,31,0.0,0.0,93,0.00,,,0.00,Wunderground v.1.15,2013-04-06 04:30:00,
2013-04-06 00:40:00,46.6,44.7,30.00,NNE,31,0.0,0.0,93,0.00,,,0.00,Wunderground v.1.15,2013-04-06 04:40:00,
2013-04-06 00:45:00,46.4,44.5,30.00,NNE,31,0.0,0.0,93,0.00,,,0.00,Wunderground v.1.15,2013-04-06 04:45:00,
2013-04-06 00:55:00,46.1,44.2,30.00,NNE,31,0.0,0.0,93,0.00,,,0.00,Wunderground v.1.15,2013-04-06 04:55:00,
2013-04-06 01:00:00,45.9,44.3,30.00,NNE,31,0.0,0.0,94,0.00,,,0.00,Wunderground v.1.15,2013-04-06 05:00:00,
2013-04-06 01:10:00,45.8,44.2,30.00,NNE,31,0.0,0.0,94,0.00,,,0.00,Wunderground v.1.15,2013-04-06 05:10:00,
2013-04-06 01:15:00,45.6,43.7,30.00,NNE,31,0.0,0.0,93,0.00,,,0.00,Wunderground v.1.15,2013-04-06 05:15:00,
2013-04-06 01:25:00,45.1,43.5,30.00,NNE,31,0.0,0.0,94,0.00,,,0.00,Wunderground v.1.15,2013-04-06 05:25:00,
2013-04-06 01:30:00,45.0,43.4,30.00,NNE,31,0.0,0.0,94,0.00,,,0.00,Wunderground v.1.15,2013-04-06 05:30:00,
2013-04-06 01:40:00,44.7,43.1,30.00,NNE,31,0.0,0.0,94,0.00,,,0.00,Wunderground v.1.15,2013-04-06 05:40:00,
2013-04-06 01:45:00,44.4,42.8,30.00,NNE,31,0.0,0.0,94,0.00,,,0.00,Wunderground v.1.15,2013-04-06 05:45:00,
2013-04-06 01:55:00,44.4,42.8,30.00,NNE,31,0.0,0.0,94,0.00,,,0.00,Wunderground v.1.15,2013-04-06 05:55:00,
2013-04-06 02:00:00,44.4,42.8,30.00,NNE,31,0.0,0.0,94,0.00,,,0.00,Wunderground v.1.15,2013-04-06 06:00:00,
2013-04-06 02:10:00,44.4,42.8,30.00,NNE,31,0.0,0.0,94,0.00,,,0.00,Wunderground v.1.15,2013-04-06 06:10:00,
2013-04-06 02:20:00,44.6,43.0,30.00,NNE,31,0.0,0.0,94,0.00,,,0.00,Wunderground v.1.15,2013-04-06 06:20:00,
2013-04-06 02:25:00,44.5,42.9,30.00,NNE,31,0.0,0.0,94,0.00,,,0.00,Wunderground v.1.15,2013-04-06 06:25:00,
2013-04-06 02:35:00,44.3,42.7,30.00,NNE,31,0.0,0.0,94,0.00,,,0.00,Wunderground v.1.15,2013-04-06 06:35:00,
2013-04-06 02:40:00,44.4,43.1,30.00,NNE,31,0.0,0.0,95,0.00,,,0.00,Wunderground v.1.15,2013-04-06 06:40:00,
2013-04-06 02:50:00,44.7,43.1,30.00,NNE,31,0.0,0.0,94,0.00,,,0.00,Wunderground v.1.15,2013-04-06 06:50:00,
2013-04-06 02:55:00,44.7,43.4,30.00,NNE,31,0.0,0.0,95,0.00,,,0.00,Wunderground v.1.15,2013-04-06 06:55:00,
2013-04-06 03:05:00,45.1,43.8,30.00,NNE,31,0.0,0.0,95,0.00,,,0.00,Wunderground v.1.15,2013-04-06 07:05:00,
2013-04-06 03:10:00,44.9,43.3,30.01,NNE,31,0.0,0.0,94,0.00,,,0.00,Wunderground v.1.15,2013-04-06 07:10:00,
2013-04-06 03:20:00,44.8,43.5,30.01,NNE,31,0.0,0.0,95,0.00,,,0.00,Wunderground v.1.15,2013-04-06 07:20:00,
2013-04-06 03:25:00,44.6,43.0,30.01,NNE,31,0.0,0.0,94,0.00,,,0.00,Wunderground v.1.15,2013-04-06 07:25:00,
2013-04-06 03:35:00,44.4,43.1,30.01,NNE,31,0.0,0.0,95,0.00,,,0.00,Wunderground v.1.15,2013-04-06 07:35:00,
2013-04-06 03:45:00,44.3,43.0,30.01,NNE,31,0.0,0.0,95,0.00,,,0.00,Wunderground v.1.15,2013-04-06 07:45:00,
2013-04-06 03:55:00,44.6,43.3,30.02,NNE,31,0.0,0.0,95,0.00,,,0.00,Wunderground v.1.15,2013-04-06 07:55:00,
2013-04-06 04:05:00,44.2,42.6,30.01,NNE,31,0.0,0.0,94,0.00,,,0.00,Wunderground v.1.15,2013-04-06 08:05:00,
2013-04-06 04:10:00,44.3,43.0,30.02,NNE,31,0.0,0.0,95,0.00,,,0.00,Wunderground v.1.15,2013-04-06 08:10:00,
2013-04-06 04:20:00,44.2,42.6,30.02,NNE,31,0.0,0.0,94,0.00,,,0.00,Wunderground v.1.15,2013-04-06 08:20:00,
2013-04-06 04:25:00,44.2,42.9,30.02,NNE,31,0.0,0.0,95,0.00,,,0.00,Wunderground v.1.15,2013-04-06 08:25:00,
2013-04-06 04:35:00,44.0,42.4,30.02,NNE,31,0.0,0.0,94,0.00,,,0.00,Wunderground v.1.15,2013-04-06 08:35:00,
2013-04-06 04:40:00,43.9,42.6,30.02,NNE,31,0.0,0.0,95,0.00,,,0.00,Wunderground v.1.15,2013-04-06 08:40:00,
2013-04-06 04:50:00,44.0,42.7,30.02,NNE,31,0.0,0.0,95,0.00,,,0.00,Wunderground v.1.15,2013-04-06 08:50:00,
2013-04-06 05:00:00,43.5,42.2,30.02,NNE,31,0.0,0.0,95,0.00,,,0.00,Wunderground v.1.15,2013-04-06 09:00:00,
2013-04-06 05:05:00,43.6,42.3,30.02,NNE,31,0.0,0.0,95,0.00,,,0.00,Wunderground v.1.15,2013-04-06 09:05:00,
2013-04-06 05:15:00,43.6,42.3,30.03,NNE,31,0.0,0.0,95,0.00,,,0.00,Wunderground v.1.15,2013-04-06 09:15:00,
2013-04-06 05:25:00,43.4,42.1,30.03,NNE,31,0.0,0.0,95,0.00,,,0.00,Wunderground v.1.15,2013-04-06 09:25:00,
2013-04-06 05:30:00,43.7,42.4,30.03,NNE,31,0.0,0.0,95,0.00,,,0.00,Wunderground v.1.15,2013-04-06 09:30:00,
2013-04-06 05:40:00,43.7,42.4,30.03,NNE,31,0.0,0.0,95,0.00,,,0.00,Wunderground v.1.15,2013-04-06 09:40:00,
2013-04-06 05:45:00,43.7,42.4,30.04,NNE,31,0.0,0.0,95,0.00,,,0.00,Wunderground v.1.15,2013-04-06 09:45:00,
2013-04-06 05:55:00,43.3,41.7,30.04,NNE,31,0.0,0.0,94,0.00,,,0.00,Wunderground v.1.15,2013-04-06 09:55:00,
2013-04-06 06:00:00,43.0,41.4,30.04,NNE,31,0.0,0.0,94,0.00,,,0.00,Wunderground v.1.15,2013-04-06 10:00:00,
2013-04-06 06:05:00,43.3,42.0,30.05,NNE,31,0.0,0.0,95,0.00,,,0.00,Wunderground v.1.15,2013-04-06 10:05:00,
2013-04-06 06:10:00,43.3,42.0,30.05,NNE,31,0.0,0.0,95,0.00,,,0.00,Wunderground v.1.15,2013-04-06 10:10:00,
2013-04-06 06:15:00,43.3,42.0,30.05,NNE,31,0.0,0.0,95,0.00,,,0.00,Wunderground v.1.15,2013-04-06 10:15:00,
2013-04-06 06:25:00,42.8,41.2,30.05,NNE,31,0.0,0.0,94,0.00,,,0.00,Wunderground v.1.15,2013-04-06 10:25:00,
2013-04-06 06:35:00,42.6,41.3,30.06,NNE,31,0.0,0.0,95,0.00,,,0.00,Wunderground v.1.15,2013-04-06 10:35:00,
2013-04-06 06:45:00,42.6,41.3,30.06,NNE,31,0.0,0.0,95,0.00,,,0.00,Wunderground v.1.15,2013-04-06 10:45:00,
2013-04-06 06:50:00,42.2,40.6,30.06,NNE,31,0.0,0.0,94,0.00,,,0.00,Wunderground v.1.15,2013-04-06 10:50:00,
2013-04-06 07:00:00,42.1,40.8,30.07,NNE,31,0.0,0.0,95,0.00,,,0.00,Wunderground v.1.15,2013-04-06 11:00:00,
2013-04-06 07:05:00,42.1,40.8,30.07,NNE,31,0.0,0.0,95,0.00,,,0.00,Wunderground v.1.15,2013-04-06 11:05:00,
2013-04-06 07:15:00,41.9,40.6,30.07,NNE,31,0.0,0.0,95,0.00,,,0.00,Wunderground v.1.15,2013-04-06 11:15:00,
2013-04-06 07:25:00,42.0,40.7,30.08,NNE,31,0.0,0.0,95,0.00,,,0.00,Wunderground v.1.15,2013-04-06 11:25:00,
2013-04-06 07:35:00,42.7,41.4,30.08,NNE,31,0.0,0.0,95,0.00,,,0.00,Wunderground v.1.15,2013-04-06 11:35:00,
2013-04-06 07:40:00,42.8,41.5,30.08,NNE,31,0.0,0.0,95,0.00,,,0.00,Wunderground v.1.15,2013-04-06 11:40:00,
2013-04-06 07:50:00,44.2,43.1,30.09,NNE,31,1.0,2.0,96,0.00,,,0.00,Wunderground v.1.15,2013-04-06 11:50:00,
2013-04-06 07:55:00,44.9,43.6,30.09,NNE,31,1.0,2.0,95,0.00,,,0.00,Wunderground v.1.15,2013-04-06 11:55:00,
2013-04-06 08:05:00,46.4,45.0,30.10,NNE,30,2.0,3.0,95,0.00,,,0.00,Wunderground v.1.15,2013-04-06 12:05:00,
2013-04-06 08:15:00,47.4,45.8,30.11,NNE,31,2.0,3.0,94,0.00,,,0.00,Wunderground v.1.15,2013-04-06 12:15:00,
2013-04-06 08:25:00,48.5,46.3,30.10,NNE,15,3.0,4.0,92,0.00,,,0.00,Wunderground v.1.15,2013-04-06 12:25:00,
2013-04-06 08:30:00,49.1,46.0,30.11,NE,39,3.0,3.0,89,0.00,,,0.00,Wunderground v.1.15,2013-04-06 12:30:00,
2013-04-06 08:40:00,50.1,45.5,30.11,NNE,28,4.0,4.0,84,0.00,,,0.00,Wunderground v.1.15,2013-04-06 12:40:00,
2013-04-06 08:50:00,50.8,45.2,30.11,NNE,27,4.0,4.0,81,0.00,,,0.00,Wunderground v.1.15,2013-04-06 12:50:00,
2013-04-06 08:55:00,51.2,45.2,30.11,NNE,15,5.0,5.0,80,0.00,,,0.00,Wunderground v.1.15,2013-04-06 12:55:00,
2013-04-06 09:05:00,52.0,45.7,30.11,NE,49,4.0,5.0,79,0.00,,,0.00,Wunderground v.1.15,2013-04-06 13:05:00,
2013-04-06 09:10:00,52.6,45.9,30.12,NNE,31,4.0,4.0,78,0.00,,,0.00,Wunderground v.1.15,2013-04-06 13:10:00,
2013-04-06 09:20:00,53.3,45.9,30.13,NE,36,4.0,4.0,76,0.00,,,0.00,Wunderground v.1.15,2013-04-06 13:20:00,
2013-04-06 09:30:00,54.2,46.8,30.13,ENE,69,3.0,4.0,76,0.00,,,0.00,Wunderground v.1.15,2013-04-06 13:30:00,
2013-04-06 09:40:00,55.3,47.2,30.13,NE,40,3.0,4.0,74,0.00,,,0.00,Wunderground v.1.15,2013-04-06 13:40:00,
2013-04-06 09:50:00,56.0,47.1,30.13,NNE,31,4.0,4.0,72,0.00,,,0.00,Wunderground v.1.15,2013-04-06 13:50:00,
2013-04-06 10:00:00,57.4,48.1,30.13,ENE,65,4.0,5.0,71,0.00,,,0.00,Wunderground v.1.15,2013-04-06 14:00:00,
2013-04-06 10:05:00,57.7,46.4,30.14,NE,46,5.0,7.0,66,0.00,,,0.00,Wunderground v.1.15,2013-04-06 14:05:00,
2013-04-06 10:15:00,58.5,45.9,30.14,NE,44,6.0,9.0,63,0.00,,,0.00,Wunderground v.1.15,2013-04-06 14:15:00,
2013-04-06 10:25:00,59.4,46.4,30.15,NE,49,6.0,7.0,62,0.00,,,0.00,Wunderground v.1.15,2013-04-06 14:25:00,
2013-04-06 10:35:00,60.3,46.8,30.15,ENE,71,6.0,7.0,61,0.00,,,0.00,Wunderground v.1.15,2013-04-06 14:35:00,
2013-04-06 10:40:00,60.5,45.6,30.15,NE,46,6.0,7.0,58,0.00,,,0.00,Wunderground v.1.15,2013-04-06 14:40:00,
2013-04-06 10:50:00,61.4,47.8,30.15,East,84,5.0,5.0,61,0.00,,,0.00,Wunderground v.1.15,2013-04-06 14:50:00,
2013-04-06 11:00:00,61.8,46.9,30.16,ENE,76,5.0,5.0,58,0.00,,,0.00,Wunderground v.1.15,2013-04-06 15:00:00,
2013-04-06 11:10:00,62.9,48.3,30.16,NE,46,4.0,6.0,59,0.00,,,0.00,Wunderground v.1.15,2013-04-06 15:10:00,
2013-04-06 11:15:00,63.0,47.5,30.16,East,93,5.0,6.0,57,0.00,,,0.00,Wunderground v.1.15,2013-04-06 15:15:00,
2013-04-06 11:25:00,63.1,46.7,30.17,ENE,67,6.0,7.0,55,0.00,,,0.00,Wunderground v.1.15,2013-04-06 15:25:00,
2013-04-06 11:35:00,64.3,47.3,30.17,East,86,7.0,7.0,54,0.00,,,0.00,Wunderground v.1.15,2013-04-06 15:35:00,
2013-04-06 11:45:00,64.8,47.8,30.17,NNE,19,7.0,7.0,54,0.00,,,0.00,Wunderground v.1.15,2013-04-06 15:45:00,
2013-04-06 11:55:00,64.7,46.7,30.17,East,88,6.0,6.0,52,0.00,,,0.00,Wunderground v.1.15,2013-04-06 15:55:00,
2013-04-06 12:05:00,65.3,46.7,30.17,East,94,6.0,13.0,51,0.00,,,0.00,Wunderground v.1.15,2013-04-06 16:05:00,
2013-04-06 12:10:00,65.4,46.3,30.17,ESE,104,7.0,7.0,50,0.00,,,0.00,Wunderground v.1.15,2013-04-06 16:10:00,
2013-04-06 12:20:00,65.5,46.4,30.17,ENE,70,7.0,7.0,50,0.00,,,0.00,Wunderground v.1.15,2013-04-06 16:20:00,
2013-04-06 12:30:00,65.9,45.6,30.17,East,96,5.0,5.0,48,0.00,,,0.00,Wunderground v.1.15,2013-04-06 16:30:00,
2013-04-06 12:40:00,66.1,49.0,30.17,ENE,70,5.0,8.0,54,0.00,,,0.00,Wunderground v.1.15,2013-04-06 16:40:00,
2013-04-06 12:45:00,65.9,51.2,30.16,SSE,155,5.0,9.0,59,0.00,,,0.00,Wunderground v.1.15,2013-04-06 16:45:00,
2013-04-06 12:55:00,65.0,49.9,30.16,SE,128,8.0,9.0,58,0.00,,,0.00,Wunderground v.1.15,2013-04-06 16:55:00,
2013-04-06 13:00:00,65.3,50.6,30.16,ESE,121,9.0,10.0,59,0.00,,,0.00,Wunderground v.1.15,2013-04-06 17:00:00,
2013-04-06 13:10:00,65.6,50.4,30.16,SSE,151,8.0,8.0,58,0.00,,,0.00,Wunderground v.1.15,2013-04-06 17:10:00,
2013-04-06 13:15:00,65.3,50.1,30.16,ESE,123,8.0,11.0,58,0.00,,,0.00,Wunderground v.1.15,2013-04-06 17:15:00,
2013-04-06 13:25:00,65.4,48.8,30.16,SE,136,10.0,14.0,55,0.00,,,0.00,Wunderground v.1.15,2013-04-06 17:25:00,
2013-04-06 13:35:00,65.1,48.0,30.16,SE,138,10.0,10.0,54,0.00,,,0.00,Wunderground v.1.15,2013-04-06 17:35:00,
2013-04-06 13:45:00,64.9,47.4,30.16,SSE,160,10.0,10.0,53,0.00,,,0.00,Wunderground v.1.15,2013-04-06 17:45:00,
2013-04-06 13:50:00,65.2,48.1,30.17,East,100,9.0,9.0,54,0.00,,,0.00,Wunderground v.1.15,2013-04-06 17:50:00,
2013-04-06 14:00:00,65.1,46.0,30.17,East,99,9.0,9.0,50,0.00,,,0.00,Wunderground v.1.15,2013-04-06 18:00:00,
2013-04-06 14:05:00,65.2,46.1,30.17,SE,128,8.0,12.0,50,0.00,,,0.00,Wunderground v.1.15,2013-04-06 18:05:00,
2013-04-06 14:15:00,65.3,44.5,30.17,SSE,155,9.0,14.0,47,0.00,,,0.00,Wunderground v.1.15,2013-04-06 18:15:00,
2013-04-06 14:20:00,64.8,44.1,30.17,SE,132,9.0,11.0,47,0.00,,,0.00,Wunderground v.1.15,2013-04-06 18:20:00,
2013-04-06 14:30:00,64.9,44.7,30.16,SSE,149,9.0,9.0,48,0.00,,,0.00,Wunderground v.1.15,2013-04-06 18:30:00,
2013-04-06 14:40:00,64.6,41.6,30.16,South,171,10.0,10.0,43,0.00,,,0.00,Wunderground v.1.15,2013-04-06 18:40:00,
2013-04-06 14:50:00,64.7,41.1,30.16,SE,132,8.0,8.0,42,0.00,,,0.00,Wunderground v.1.15,2013-04-06 18:50:00,
2013-04-06 14:55:00,65.1,42.0,30.16,ESE,105,8.0,10.0,43,0.00,,,0.00,Wunderground v.1.15,2013-04-06 18:55:00,
2013-04-06 15:05:00,65.1,40.8,30.16,ESE,103,8.0,11.0,41,0.00,,,0.00,Wunderground v.1.15,2013-04-06 19:05:00,
2013-04-06 15:10:00,65.5,41.2,30.16,SE,140,8.0,13.0,41,0.00,,,0.00,Wunderground v.1.15,2013-04-06 19:10:00,
2013-04-06 15:20:00,64.4,38.9,30.16,SE,126,11.0,11.0,39,0.00,,,0.00,Wunderground v.1.15,2013-04-06 19:20:00,
2013-04-06 15:30:00,64.7,39.2,30.16,ESE,121,10.0,13.0,39,0.00,,,0.00,Wunderground v.1.15,2013-04-06 19:30:00,
2013-04-06 15:40:00,64.1,38.6,30.15,East,101,10.0,10.0,39,0.00,,,0.00,Wunderground v.1.15,2013-04-06 19:40:00,
2013-04-06 15:45:00,64.1,39.3,30.15,ESE,123,10.0,12.0,40,0.00,,,0.00,Wunderground v.1.15,2013-04-06 19:45:00,
2013-04-06 15:55:00,63.4,36.7,30.15,ESE,123,11.0,11.0,37,0.00,,,0.00,Wunderground v.1.15,2013-04-06 19:55:00,
2013-04-06 16:00:00,63.4,38.0,30.15,East,94,11.0,11.0,39,0.00,,,0.00,Wunderground v.1.15,2013-04-06 20:00:00,
2013-04-06 16:10:00,64.1,37.3,30.15,ESE,105,8.0,10.0,37,0.00,,,0.00,Wunderground v.1.15,2013-04-06 20:10:00,
2013-04-06 16:15:00,63.2,37.2,30.15,SE,132,10.0,11.0,38,0.00,,,0.00,Wunderground v.1.15,2013-04-06 20:15:00,
2013-04-06 16:25:00,63.1,37.7,30.15,East,94,10.0,12.0,39,0.00,,,0.00,Wunderground v.1.15,2013-04-06 20:25:00,
2013-04-06 16:35:00,63.0,37.6,30.15,SE,132,10.0,12.0,39,0.00,,,0.00,Wunderground v.1.15,2013-04-06 20:35:00,
2013-04-06 16:45:00,62.9,38.8,30.15,SSE,157,9.0,10.0,41,0.00,,,0.00,Wunderground v.1.15,2013-04-06 20:45:00,
2013-04-06 16:55:00,62.5,39.7,30.15,South,171,8.0,8.0,43,0.00,,,0.00,Wunderground v.1.15,2013-04-06 20:55:00,
2013-04-06 17:00:00,62.1,38.7,30.15,SE,144,9.0,9.0,42,0.00,,,0.00,Wunderground v.1.15,2013-04-06 21:00:00,
2013-04-06 17:10:00,62.0,37.4,30.15,SE,130,10.0,10.0,40,0.00,,,0.00,Wunderground v.1.15,2013-04-06 21:10:00,
2013-04-06 17:15:00,61.9,37.9,30.15,ESE,115,10.0,10.0,41,0.00,,,0.00,Wunderground v.1.15,2013-04-06 21:15:00,
2013-04-06 17:25:00,61.4,36.2,30.16,SE,132,10.0,10.0,39,0.00,,,0.00,Wunderground v.1.15,2013-04-06 21:25:00,
2013-04-06 17:30:00,61.3,35.5,30.16,SE,144,11.0,11.0,38,0.00,,,0.00,Wunderground v.1.15,2013-04-06 21:30:00,
2013-04-06 17:40:00,61.3,37.4,30.16,SE,143,9.0,9.0,41,0.00,,,0.00,Wunderground v.1.15,2013-04-06 21:40:00,
2013-04-06 17:45:00,61.2,36.7,30.16,ESE,123,9.0,9.0,40,0.00,,,0.00,Wunderground v.1.15,2013-04-06 21:45:00,
2013-04-06 17:55:00,61.2,37.3,30.16,SSE,155,8.0,12.0,41,0.00,,,0.00,Wunderground v.1.15,2013-04-06 21:55:00,
2013-04-06 18:05:00,60.6,38.0,30.16,SE,135,9.0,10.0,43,0.00,,,0.00,Wunderground v.1.15,2013-04-06 22:05:00,
2013-04-06 18:15:00,60.0,39.1,30.17,ESE,115,8.0,9.0,46,0.00,,,0.00,Wunderground v.1.15,2013-04-06 22:15:00,
2013-04-06 18:20:00,59.8,40.6,30.17,ESE,113,7.0,7.0,49,0.00,,,0.00,Wunderground v.1.15,2013-04-06 22:20:00,
2013-04-06 18:30:00,59.4,39.7,30.17,SE,138,7.0,7.0,48,0.00,,,0.00,Wunderground v.1.15,2013-04-06 22:30:00,
2013-04-06 18:35:00,59.0,39.9,30.17,SE,132,8.0,10.0,49,0.00,,,0.00,Wunderground v.1.15,2013-04-06 22:35:00,
2013-04-06 18:45:00,58.3,40.7,30.18,SE,134,8.0,9.0,52,0.00,,,0.00,Wunderground v.1.15,2013-04-06 22:45:00,
2013-04-06 18:55:00,57.9,41.3,30.18,SE,136,8.0,13.0,54,0.00,,,0.00,Wunderground v.1.15,2013-04-06 22:55:00,
2013-04-06 19:10:00,57.0,42.8,30.18,SE,128,8.0,8.0,59,0.00,,,0.00,Wunderground v.1.15,2013-04-06 23:10:00,
2013-04-06 19:15:00,56.8,43.5,30.18,ESE,113,7.0,8.0,61,0.00,,,0.00,Wunderground v.1.15,2013-04-06 23:15:00,
2013-04-06 19:25:00,56.1,44.5,30.18,ESE,115,8.0,8.0,65,0.00,,,0.00,Wunderground v.1.15,2013-04-06 23:25:00,
2013-04-06 19:30:00,55.7,44.5,30.19,SE,136,7.0,11.0,66,0.00,,,0.00,Wunderground v.1.15,2013-04-06 23:30:00,
2013-04-06 19:40:00,55.3,44.9,30.19,SE,135,6.0,6.0,68,0.00,,,0.00,Wunderground v.1.15,2013-04-06 23:40:00,
2013-04-06 19:45:00,54.9,45.3,30.19,SE,130,4.0,6.0,70,0.00,,,0.00,Wunderground v.1.15,2013-04-06 23:45:00,
2013-04-06 19:55:00,54.6,45.4,30.19,SE,126,5.0,5.0,71,0.00,,,0.00,Wunderground v.1.15,2013-04-06 23:55:00,
2013-04-06 20:00:00,54.4,45.2,30.19,ESE,121,5.0,5.0,71,0.00,,,0.00,Wunderground v.1.15,2013-04-07 00:00:00,
2013-04-06 20:10:00,54.2,44.2,30.19,SE,128,7.0,7.0,69,0.00,,,0.00,Wunderground v.1.15,2013-04-07 00:10:00,
2013-04-06 20:20:00,54.0,44.4,30.20,ESE,113,6.0,10.0,70,0.00,,,0.00,Wunderground v.1.15,2013-04-07 00:20:00,
2013-04-06 20:30:00,53.7,44.1,30.20,SE,137,5.0,5.0,70,0.00,,,0.00,Wunderground v.1.15,2013-04-07 00:30:00,
2013-04-06 20:40:00,53.6,44.8,30.21,SE,130,5.0,5.0,72,0.00,,,0.00,Wunderground v.1.15,2013-04-07 00:40:00,
2013-04-06 20:50:00,53.4,45.0,30.21,ESE,119,5.0,5.0,73,0.00,,,0.00,Wunderground v.1.15,2013-04-07 00:50:00,
2013-04-06 21:00:00,53.1,45.0,30.21,SE,130,4.0,6.0,74,0.00,,,0.00,Wunderground v.1.15,2013-04-07 01:00:00,
2013-04-06 21:10:00,53.0,45.3,30.21,ESE,105,4.0,4.0,75,0.00,,,0.00,Wunderground v.1.15,2013-04-07 01:10:00,
2013-04-06 21:15:00,53.0,45.3,30.21,ESE,102,4.0,4.0,75,0.00,,,0.00,Wunderground v.1.15,2013-04-07 01:15:00,
2013-04-06 21:25:00,52.8,45.1,30.22,ESE,113,4.0,4.0,75,0.00,,,0.00,Wunderground v.1.15,2013-04-07 01:25:00,
2013-04-06 21:35:00,52.6,45.2,30.22,East,90,3.0,4.0,76,0.00,,,0.00,Wunderground v.1.15,2013-04-07 01:35:00,
2013-04-06 21:40:00,52.5,45.2,30.22,East,94,3.0,3.0,76,0.00,,,0.00,Wunderground v.1.15,2013-04-07 01:40:00,
2013-04-06 21:50:00,52.4,45.4,30.23,ESE,119,4.0,7.0,77,0.00,,,0.00,Wunderground v.1.15,2013-04-07 01:50:00,
2013-04-06 22:00:00,52.3,45.6,30.23,ESE,110,4.0,4.0,78,0.00,,,0.00,Wunderground v.1.15,2013-04-07 02:00:00,
2013-04-06 22:10:00,52.0,45.7,30.23,East,96,3.0,3.0,79,0.00,,,0.00,Wunderground v.1.15,2013-04-07 02:10:00,
2013-04-06 22:20:00,52.1,45.8,30.23,ESE,107,5.0,5.0,79,0.00,,,0.00,Wunderground v.1.15,2013-04-07 02:20:00,
2013-04-06 22:30:00,52.0,45.4,30.23,ESE,105,4.0,4.0,78,0.00,,,0.00,Wunderground v.1.15,2013-04-07 02:30:00,
2013-04-06 22:35:00,52.0,45.4,30.23,ESE,105,4.0,4.0,78,0.00,,,0.00,Wunderground v.1.15,2013-04-07 02:35:00,
2013-04-06 22:45:00,51.7,45.1,30.23,ESE,110,4.0,5.0,78,0.00,,,0.00,Wunderground v.1.15,2013-04-07 02:45:00,
2013-04-06 22:55:00,51.4,45.1,30.23,ESE,109,3.0,4.0,79,0.00,,,0.00,Wunderground v.1.15,2013-04-07 02:55:00,
2013-04-06 23:05:00,51.1,45.1,30.23,SE,126,2.0,2.0,80,0.00,,,0.00,Wunderground v.1.15,2013-04-07 03:05:00,
2013-04-06 23:10:00,51.1,45.1,30.23,SSE,148,3.0,5.0,80,0.00,,,0.00,Wunderground v.1.15,2013-04-07 03:10:00,
2013-04-06 23:20:00,51.1,45.1,30.23,ESE,123,4.0,4.0,80,0.00,,,0.00,Wunderground v.1.15,2013-04-07 03:20:00,
2013-04-06 23:30:00,50.9,45.3,30.23,ESE,105,4.0,4.0,81,0.00,,,0.00,Wunderground v.1.15,2013-04-07 03:30:00,
2013-04-06 23:40:00,50.8,45.5,30.22,ESE,117,2.0,5.0,82,0.00,,,0.00,Wunderground v.1.15,2013-04-07 03:40:00,
2013-04-06 23:50:00,50.8,45.8,30.22,ESE,120,4.0,4.0,83,0.00,,,0.00,Wunderground v.1.15,2013-04-07 03:50:00,
2013-04-06 23:55:00,50.7,45.7,30.22,East,94,4.0,6.0,83,0.00,,,0.00,Wunderground v.1.15,2013-04-07 03:55:00,